Weather History for Copper Harbor, MI

Change the Weather History Date:

Wednesday, November 7, 2012

  Actual Average Record
Temperature  
Mean Temperature 40 °F -  
Max Temperature 42 °F 40 °F 54 °F (2002)
Min Temperature 39 °F 30 °F 21 °F (2002)
Degree Days  
Heating Degree Days 24    
Moisture  
Dew Point 36 °F    
Average Humidity 82    
Maximum Humidity 86    
Minimum Humidity 76    
Precipitation  
Precipitation 0.00 in - - ()
Sea Level Pressure  
Sea Level Pressure 30.05 in    
Wind  
Wind Speed 4 mph (WSW)    
Max Wind Speed 7 mph    
Max Gust Speed -    
Averages and records for this station are not official NWS values.
T = Trace of Precipitation, MM = Missing Value Source: NWS Daily Summary

Daily Weather History Graph

Daily Weather History Graph

Search for Another Location

Airport:

Trip Planner

Search our weather history database for the weather conditions in past years. The results will help you decide how hot, cold, wet, or windy it might be!

Date:

Astronomy

Nov. 07, 2012 Rise Set
Actual Time 7:45 AM EST 5:24 PM EST
Civil Twilight 7:12 AM EST 5:57 PM EST
Nautical Twilight 6:35 AM EST 6:34 PM EST
Astronomical Twilight 5:59 AM EST 7:10 PM EST
Moon 12:10 AM EST (11/7) 1:59 PM EST (11/7)
Length of Visible Light 10h 45m
Length of Day
9h 39m
Last Quarter, 43% of the Moon is Illuminated
Nov 7
Last Quarter
Nov 13
New
Nov 20
First Quarter
Nov 28
Full
Dec 6
Last Quarter

Hourly Weather History & Observations

Time (EST) Temp. Windchill Dew Point Humidity Pressure Visibility Wind Dir Wind Speed Gust Speed Precip Events Conditions
12:51 AM 41.0 °F 39.0 °F 35.1 °F 79% 29.96 in - Variable 3.5 mph - N/A   Unknown
1:51 AM 41.0 °F 39.0 °F 35.1 °F 79% 29.97 in - SW 3.5 mph - N/A   Unknown
2:51 AM 41.0 °F 39.0 °F 35.1 °F 79% 29.99 in - SSW 3.5 mph - N/A   Unknown
3:51 AM 41.0 °F 37.1 °F 36.0 °F 82% 30.00 in - Variable 5.8 mph - N/A   Unknown
4:51 AM 41.0 °F 38.0 °F 36.0 °F 82% 30.00 in - Variable 4.6 mph - N/A   Unknown
5:51 AM 41.0 °F 38.0 °F 36.0 °F 82% 30.01 in - SW 4.6 mph - N/A   Unknown
6:51 AM 41.0 °F 39.0 °F 37.0 °F 86% 30.03 in - Variable 3.5 mph - N/A   Unknown
7:51 AM 42.1 °F 38.4 °F 36.0 °F 79% 30.04 in - WSW 5.8 mph - N/A   Unknown
8:51 AM 42.1 °F 38.4 °F 37.0 °F 82% 30.06 in - Variable 5.8 mph - N/A   Unknown
9:51 AM 42.1 °F 37.7 °F 37.0 °F 82% 30.06 in - Variable 6.9 mph - N/A   Unknown
10:51 AM 42.1 °F 39.2 °F 37.0 °F 82% 30.07 in - Variable 4.6 mph - N/A   Unknown
11:51 AM 41.0 °F 39.0 °F 37.0 °F 86% 30.08 in - West 3.5 mph - N/A   Unknown
12:51 PM 41.0 °F 38.0 °F 37.0 °F 86% 30.06 in - Variable 4.6 mph - N/A   Unknown
1:51 PM 41.0 °F - 37.0 °F 86% 30.06 in - Calm Calm - N/A   Unknown
2:51 PM 42.1 °F 40.2 °F 36.0 °F 79% 30.05 in - Variable 3.5 mph - N/A   Unknown
3:51 PM 42.1 °F 40.2 °F 35.1 °F 76% 30.06 in - West 3.5 mph - N/A   Unknown
4:51 PM 41.0 °F - 35.1 °F 79% 30.08 in - Calm Calm - N/A   Unknown
6:51 PM 39.9 °F - 35.1 °F 83% 30.09 in - Calm Calm - N/A   Unknown
7:51 PM 39.9 °F - 35.1 °F 83% 30.09 in - Calm Calm - N/A   Unknown
8:51 PM 39.9 °F - 35.1 °F 83% 30.09 in - Calm Calm - N/A   Unknown
9:51 PM 39.9 °F 37.8 °F 35.1 °F 83% 30.09 in - SW 3.5 mph - N/A   Unknown
10:51 PM 39.9 °F 37.8 °F 35.1 °F 83% 30.09 in - SW 3.5 mph - N/A   Unknown
11:51 PM 39.9 °F - 36.0 °F 86% 30.08 in - Calm Calm - N/A   Unknown